| time (UTC) | temp F | wind direction | speed MPH | gust MPH | rain 1hr in | rain 24hr in | rain mn in | humidity % | barometer mb |
| 20260905193451 | 81 | 291 | 1.0 | 3.0 | 0.00 | 0.36 | 0.10 | 77 | 1010.8 |
| 20260905193212 | 81 | 273 | 1.0 | 4.0 | 0.00 | 0.36 | 0.10 | 74 | 1010.8 |
| 20260905192449 | 80 | 104 | 1.0 | 4.0 | 0.00 | 0.36 | 0.10 | 77 | 1010.8 |
| 20260905191949 | 80 | 82 | 0.0 | 3.0 | 0.00 | 0.36 | 0.10 | 78 | 1010.8 |
| 20260905191448 | 80 | 321 | 0.0 | 4.0 | 0.00 | 0.36 | 0.10 | 76 | 1010.8 |
| 20260905190951 | 80 | 33 | 1.0 | 4.0 | 0.00 | 0.36 | 0.10 | 80 | 1010.9 |
| 20260905190945 | 80 | 80 | 1.0 | 3.0 | 0.00 | 0.36 | 0.10 | 81 | 1010.9 |
| 20260905190431 | 81 | 55 | 1.0 | 3.0 | 0.00 | 0.36 | 0.10 | 79 | 1011.0 |
| 20260905185447 | 80 | 0 | 0.0 | 3.0 | 0.00 | 0.36 | 0.10 | 78 | 1011.1 |
| 20260905184947 | 81 | 318 | 0.0 | 3.0 | 0.00 | 0.36 | 0.10 | 80 | 1011.1 |
| 20260905184439 | 80 | 62 | 0.0 | 3.0 | 0.00 | 0.36 | 0.10 | 81 | 1011.0 |
| 20260905183940 | 81 | 73 | 0.0 | 2.0 | 0.00 | 0.36 | 0.10 | 82 | 1011.1 |
| 20260905183438 | 80 | 58 | 0.0 | 1.0 | 0.00 | 0.36 | 0.10 | 88 | 1011.1 |
| 20260905183211 | 78 | 195 | 0.0 | 2.0 | 0.00 | 0.36 | 0.10 | 90 | 1011.1 |
| 20260905182438 | 78 | 195 | 0.0 | 2.0 | 0.01 | 0.36 | 0.10 | 88 | 1011.1 |
| 20260905181936 | 78 | 96 | 0.0 | 1.0 | 0.01 | 0.36 | 0.10 | 90 | 1011.0 |
| 20260905181437 | 78 | 96 | 0.0 | 1.0 | 0.02 | 0.36 | 0.10 | 90 | 1011.0 |
| 20260905181432 | 78 | 78 | 0.0 | 1.0 | 0.02 | 0.36 | 0.10 | 92 | 1011.0 |
| 20260905180659 | 77 | 111 | 0.0 | 0.0 | 0.03 | 0.36 | 0.10 | 93 | 1011.0 |
| 20260905175936 | 76 | 119 | 0.0 | 0.0 | 0.04 | 0.36 | 0.10 | 94 | 1011.1 |
| 20260905175440 | 76 | 111 | 0.0 | 0.0 | 0.05 | 0.36 | 0.10 | 94 | 1011.1 |
| 20260905174934 | 76 | 296 | 0.0 | 0.0 | 0.05 | 0.36 | 0.10 | 94 | 1011.1 |
| 20260905174435 | 76 | 212 | 0.0 | 1.0 | 0.06 | 0.36 | 0.10 | 95 | 1011.0 |
| 20260905173933 | 76 | 140 | 0.0 | 2.0 | 0.07 | 0.36 | 0.10 | 96 | 1011.2 |
| 20260905173701 | 76 | 140 | 0.0 | 2.0 | 0.08 | 0.36 | 0.10 | 96 | 1011.1 |
| 20260905172932 | 75 | 140 | 0.0 | 1.0 | 0.08 | 0.36 | 0.10 | 95 | 1011.1 |
| 20260905172431 | 75 | 140 | 0.0 | 3.0 | 0.07 | 0.35 | 0.09 | 96 | 1011.2 |
| 20260905171933 | 75 | 18 | 0.0 | 3.0 | 0.08 | 0.35 | 0.09 | 96 | 1011.4 |
| 20260905171700 | 75 | 186 | 0.0 | 1.0 | 0.07 | 0.34 | 0.08 | 95 | 1011.4 |
| 20260905170933 | 75 | 209 | 0.0 | 1.0 | 0.07 | 0.34 | 0.08 | 96 | 1011.5 |
| 20260905170427 | 75 | 209 | 0.0 | 1.0 | 0.06 | 0.33 | 0.07 | 94 | 1011.5 |
| 20260905165929 | 75 | 209 | 0.0 | 1.0 | 0.05 | 0.32 | 0.06 | 93 | 1011.7 |
| 20260905165429 | 76 | 209 | 0.0 | 1.0 | 0.04 | 0.31 | 0.06 | 91 | 1012.0 |
| 20260905165150 | 76 | 209 | 0.0 | 1.0 | 0.04 | 0.31 | 0.05 | 90 | 1012.1 |
| 20260905164648 | 76 | 209 | 0.0 | 1.0 | 0.03 | 0.30 | 0.04 | 90 | 1012.4 |
| 20260905163928 | 77 | 209 | 0.0 | 1.0 | 0.02 | 0.29 | 0.03 | 89 | 1012.7 |
| 20260905163427 | 77 | 71 | 0.0 | 0.0 | 0.01 | 0.28 | 0.03 | 89 | 1012.9 |
| 20260905162926 | 77 | 71 | 0.0 | 1.0 | 0.01 | 0.28 | 0.02 | 89 | 1013.0 |
| 20260905162858 | 77 | 71 | 0.0 | 1.0 | 0.01 | 0.28 | 0.02 | 88 | 1012.9 |
| 20260905161924 | 77 | 71 | 0.0 | 0.0 | 0.00 | 0.27 | 0.01 | 88 | 1012.9 |
| 20260905161422 | 77 | 71 | 0.0 | 0.0 | 0.00 | 0.27 | 0.01 | 88 | 1012.9 |
| 20260905161151 | 77 | 71 | 0.0 | 0.0 | 0.00 | 0.27 | 0.01 | 88 | 1013.0 |
| 20260905160416 | 77 | 71 | 0.0 | 0.0 | 0.00 | 0.27 | 0.01 | 87 | 1013.0 |
| 20260905155910 | 77 | 71 | 0.0 | 0.0 | 0.00 | 0.27 | 0.01 | 87 | 1013.1 |
| 20260905155404 | 77 | 71 | 0.0 | 1.0 | 0.00 | 0.27 | 0.01 | 87 | 1013.0 |
| 20260905154900 | 77 | 71 | 0.0 | 1.0 | 0.00 | 0.27 | 0.01 | 87 | 1013.0 |
| 20260905154400 | 77 | 73 | 0.0 | 1.0 | 0.00 | 0.27 | 0.01 | 86 | 1012.9 |
| 20260905154344 | 77 | 73 | 0.0 | 1.0 | 0.00 | 0.27 | 0.01 | 86 | 1012.8 |
| 20260905153401 | 77 | 73 | 0.0 | 2.0 | 0.00 | 0.27 | 0.01 | 86 | 1012.6 |
| 20260905152900 | 77 | 107 | 0.0 | 2.0 | 0.00 | 0.27 | 0.01 | 86 | 1012.6 |
| 20260905152359 | 77 | 75 | 0.0 | 1.0 | 0.00 | 0.27 | 0.01 | 86 | 1012.5 |
| 20260905151857 | 77 | 107 | 0.0 | 2.0 | 0.00 | 0.27 | 0.01 | 86 | 1012.5 |
| 20260905151623 | 77 | 59 | 0.0 | 2.0 | 0.00 | 0.27 | 0.01 | 86 | 1012.7 |
| 20260905151123 | 77 | 32 | 0.0 | 2.0 | 0.00 | 0.27 | 0.01 | 85 | 1012.8 |
| 20260905150357 | 77 | 65 | 0.0 | 1.0 | 0.00 | 0.27 | 0.01 | 86 | 1012.9 |
| 20260905145857 | 77 | 96 | 0.0 | 1.0 | 0.00 | 0.27 | 0.01 | 86 | 1012.8 |
| 20260905145358 | 77 | 125 | 0.0 | 3.0 | 0.00 | 0.27 | 0.01 | 86 | 1012.8 |
| 20260905144859 | 77 | 125 | 0.0 | 3.0 | 0.00 | 0.27 | 0.01 | 86 | 1012.8 |
| 20260905144357 | 77 | 67 | 0.0 | 3.0 | 0.00 | 0.27 | 0.01 | 85 | 1012.9 |
| 20260905143900 | 78 | 31 | 0.0 | 3.0 | 0.00 | 0.27 | 0.01 | 85 | 1012.9 |
| 20260905143355 | 78 | 78 | 1.0 | 3.0 | 0.00 | 0.27 | 0.01 | 85 | 1012.9 |
| 20260905142855 | 77 | 58 | 0.0 | 3.0 | 0.00 | 0.27 | 0.01 | 86 | 1012.8 |
| 20260905142354 | 78 | 31 | 0.0 | 3.0 | 0.00 | 0.27 | 0.01 | 86 | 1012.8 |
| 20260905141849 | 77 | 42 | 0.0 | 3.0 | 0.00 | 0.27 | 0.01 | 85 | 1012.8 |
| 20260905141342 | 77 | 29 | 0.0 | 3.0 | 0.00 | 0.27 | 0.01 | 86 | 1012.8 |
| 20260905140836 | 77 | 123 | 0.0 | 2.0 | 0.00 | 0.27 | 0.01 | 87 | 1012.8 |
| 20260905140331 | 77 | 123 | 0.0 | 2.0 | 0.00 | 0.27 | 0.01 | 86 | 1012.7 |
| 20260905135824 | 77 | 65 | 0.0 | 2.0 | 0.00 | 0.27 | 0.01 | 87 | 1012.5 |
| 20260905135318 | 76 | 65 | 0.0 | 2.0 | 0.00 | 0.27 | 0.01 | 88 | 1012.4 |
| 20260905134812 | 76 | 87 | 0.0 | 2.0 | 0.00 | 0.27 | 0.01 | 89 | 1012.2 |
| 20260905134306 | 76 | 31 | 0.0 | 2.0 | 0.00 | 0.27 | 0.01 | 89 | 1012.1 |
| 20260905133800 | 76 | 90 | 1.0 | 3.0 | 0.00 | 0.27 | 0.01 | 89 | 1012.2 |
| 20260905133254 | 76 | 76 | 0.0 | 3.0 | 0.00 | 0.27 | 0.01 | 90 | 1012.1 |
| 20260905132748 | 75 | 89 | 1.0 | 3.0 | 0.00 | 0.27 | 0.01 | 91 | 1012.0 |
| 20260905132242 | 74 | 138 | 1.0 | 4.0 | 0.00 | 0.27 | 0.01 | 93 | 1012.0 |
| 20260905131736 | 74 | 97 | 1.0 | 4.0 | 0.00 | 0.27 | 0.01 | 94 | 1012.0 |
| 20260905131231 | 73 | 111 | 0.0 | 1.0 | 0.00 | 0.27 | 0.01 | 96 | 1011.9 |
| 20260905130724 | 73 | 86 | 0.0 | 1.0 | 0.00 | 0.27 | 0.01 | 97 | 1012.1 |
| 20260905130218 | 72 | 86 | 0.0 | 1.0 | 0.00 | 0.27 | 0.01 | 96 | 1012.1 |
| 20260905125712 | 72 | 57 | 0.0 | 1.0 | 0.00 | 0.27 | 0.01 | 96 | 1012.0 |
| 20260905125206 | 71 | 67 | 0.0 | 4.0 | 0.00 | 0.27 | 0.01 | 96 | 1012.0 |
| 20260905124700 | 71 | 67 | 0.0 | 4.0 | 0.00 | 0.27 | 0.01 | 96 | 1012.0 |
| 20260905124154 | 71 | 346 | 0.0 | 1.0 | 0.00 | 0.27 | 0.01 | 96 | 1012.0 |
| 20260905123648 | 71 | 26 | 0.0 | 0.0 | 0.00 | 0.27 | 0.01 | 96 | 1012.0 |
| 20260905123142 | 71 | 26 | 0.0 | 0.0 | 0.00 | 0.27 | 0.01 | 96 | 1012.1 |
| 20260905122635 | 71 | 26 | 0.0 | 1.0 | 0.00 | 0.27 | 0.01 | 96 | 1012.0 |
| 20260905122131 | 71 | 26 | 0.0 | 1.0 | 0.00 | 0.27 | 0.01 | 96 | 1012.0 |
| 20260905121624 | 70 | 26 | 0.0 | 1.0 | 0.00 | 0.27 | 0.01 | 96 | 1011.8 |
| 20260905121118 | 70 | 26 | 0.0 | 1.0 | 0.00 | 0.27 | 0.01 | 96 | 1011.9 |
| 20260905120613 | 70 | 26 | 0.0 | 1.0 | 0.00 | 0.27 | 0.01 | 96 | 1011.9 |
| 20260905120331 | 70 | 29 | 0.0 | 1.0 | 0.00 | 0.27 | 0.01 | 96 | 1011.9 |
| 20260905115600 | 69 | 19 | 0.0 | 0.0 | 0.00 | 0.27 | 0.01 | 96 | 1011.8 |
| 20260905115054 | 69 | 19 | 0.0 | 0.0 | 0.00 | 0.27 | 0.01 | 96 | 1011.9 |
| 20260905114548 | 69 | 19 | 0.0 | 0.0 | 0.00 | 0.27 | 0.01 | 96 | 1011.8 |
| 20260905114041 | 69 | 20 | 0.0 | 0.0 | 0.00 | 0.27 | 0.01 | 96 | 1011.7 |
| 20260905113536 | 69 | 20 | 0.0 | 0.0 | 0.00 | 0.27 | 0.01 | 96 | 1011.6 |
| 20260905113248 | 69 | 20 | 0.0 | 1.0 | 0.00 | 0.27 | 0.01 | 96 | 1011.6 |
| 20260905112524 | 69 | 19 | 0.0 | 1.0 | 0.00 | 0.27 | 0.01 | 95 | 1011.6 |
| 20260905112017 | 69 | 19 | 0.0 | 2.0 | 0.00 | 0.27 | 0.01 | 95 | 1011.6 |
| 20260905111512 | 69 | 19 | 0.0 | 2.0 | 0.00 | 0.27 | 0.01 | 95 | 1011.6 |
| 20260905111226 | 69 | 19 | 0.0 | 2.0 | 0.00 | 0.27 | 0.01 | 95 | 1011.7 |
| 20260905110500 | 69 | 19 | 0.0 | 2.0 | 0.00 | 0.27 | 0.01 | 95 | 1011.7 |
| 20260905105955 | 69 | 19 | 0.0 | 2.0 | 0.00 | 0.27 | 0.01 | 95 | 1011.6 |
| 20260905105448 | 69 | 19 | 0.0 | 2.0 | 0.00 | 0.27 | 0.01 | 95 | 1011.4 |
| 20260905104942 | 69 | 19 | 0.0 | 1.0 | 0.00 | 0.27 | 0.01 | 95 | 1011.3 |
| 20260905104436 | 69 | 20 | 0.0 | 1.0 | 0.00 | 0.27 | 0.01 | 95 | 1011.1 |
| 20260905103930 | 69 | 19 | 0.0 | 0.0 | 0.00 | 0.27 | 0.01 | 95 | 1011.0 |
| 20260905103425 | 69 | 20 | 0.0 | 0.0 | 0.00 | 0.27 | 0.01 | 95 | 1011.0 |
| 20260905102919 | 69 | 20 | 0.0 | 0.0 | 0.00 | 0.27 | 0.01 | 95 | 1010.9 |
| 20260905102633 | 69 | 19 | 0.0 | 0.0 | 0.00 | 0.27 | 0.01 | 95 | 1010.9 |
| 20260905101906 | 69 | 20 | 0.0 | 0.0 | 0.00 | 0.27 | 0.01 | 95 | 1011.0 |
| 20260905101627 | 69 | 20 | 0.0 | 0.0 | 0.00 | 0.27 | 0.01 | 95 | 1010.9 |
| 20260905100854 | 69 | 20 | 0.0 | 0.0 | 0.00 | 0.27 | 0.01 | 95 | 1010.8 |
| 20260905100348 | 69 | 19 | 0.0 | 0.0 | 0.00 | 0.27 | 0.01 | 95 | 1010.8 |
| 20260905095842 | 69 | 20 | 0.0 | 0.0 | 0.00 | 0.27 | 0.01 | 95 | 1010.7 |
| 20260905095336 | 69 | 20 | 0.0 | 0.0 | 0.00 | 0.27 | 0.01 | 95 | 1010.7 |
| 20260905094830 | 69 | 19 | 0.0 | 1.0 | 0.00 | 0.27 | 0.01 | 95 | 1010.7 |
| 20260905094330 | 69 | 19 | 0.0 | 1.0 | 0.00 | 0.27 | 0.01 | 95 | 1010.7 |
| 20260905093827 | 69 | 19 | 0.0 | 1.0 | 0.00 | 0.27 | 0.01 | 95 | 1010.7 |
| 20260905093550 | 69 | 351 | 0.0 | 1.0 | 0.00 | 0.27 | 0.01 | 95 | 1010.7 |
| 20260905092824 | 69 | 351 | 0.0 | 1.0 | 0.00 | 0.27 | 0.01 | 95 | 1010.7 |
| 20260905092545 | 69 | 351 | 0.0 | 1.0 | 0.00 | 0.27 | 0.01 | 95 | 1010.6 |
| 20260905091821 | 69 | 350 | 0.0 | 1.0 | 0.00 | 0.27 | 0.01 | 95 | 1010.6 |
| 20260905091811 | 69 | 287 | 0.0 | 1.0 | 0.00 | 0.27 | 0.01 | 95 | 1010.6 |
| 20260905090819 | 69 | 287 | 0.0 | 1.0 | 0.00 | 0.27 | 0.01 | 95 | 1010.8 |
| 20260905090317 | 69 | 286 | 0.0 | 1.0 | 0.00 | 0.27 | 0.01 | 95 | 1010.7 |
| 20260905085817 | 69 | 286 | 0.0 | 0.0 | 0.00 | 0.27 | 0.01 | 95 | 1010.7 |
| 20260905085318 | 69 | 286 | 0.0 | 0.0 | 0.00 | 0.27 | 0.01 | 95 | 1010.7 |
| 20260905084815 | 69 | 286 | 0.0 | 0.0 | 0.00 | 0.27 | 0.01 | 95 | 1010.8 |
| 20260905084314 | 69 | 286 | 0.0 | 0.0 | 0.00 | 0.27 | 0.01 | 95 | 1010.8 |
| 20260905083812 | 69 | 286 | 0.0 | 0.0 | 0.00 | 0.27 | 0.01 | 95 | 1010.7 |
| 20260905083310 | 69 | 286 | 0.0 | 0.0 | 0.00 | 0.27 | 0.01 | 95 | 1010.8 |
| 20260905082809 | 70 | 286 | 0.0 | 0.0 | 0.00 | 0.27 | 0.01 | 95 | 1010.8 |
| 20260905082310 | 70 | 286 | 0.0 | 0.0 | 0.00 | 0.27 | 0.01 | 95 | 1010.8 |
| 20260905081808 | 70 | 286 | 0.0 | 0.0 | 0.00 | 0.27 | 0.01 | 95 | 1010.8 |
| 20260905081528 | 70 | 286 | 0.0 | 0.0 | 0.00 | 0.27 | 0.01 | 95 | 1010.9 |
| 20260905080805 | 70 | 286 | 0.0 | 0.0 | 0.00 | 0.27 | 0.01 | 95 | 1011.0 |
| 20260905080307 | 70 | 286 | 0.0 | 1.0 | 0.00 | 0.27 | 0.01 | 95 | 1011.0 |
| 20260905080031 | 70 | 286 | 0.0 | 1.0 | 0.00 | 0.27 | 0.01 | 95 | 1011.0 |
| 20260905075306 | 70 | 286 | 0.0 | 0.0 | 0.00 | 0.27 | 0.01 | 95 | 1011.1 |
| 20260905074805 | 70 | 286 | 0.0 | 0.0 | 0.00 | 0.27 | 0.01 | 95 | 1011.3 |
| 20260905074305 | 70 | 286 | 0.0 | 0.0 | 0.01 | 0.27 | 0.01 | 95 | 1011.3 |
| 20260905074026 | 70 | 286 | 0.0 | 0.0 | 0.01 | 0.27 | 0.01 | 95 | 1011.3 |
| 20260905073530 | 70 | 286 | 0.0 | 0.0 | 0.01 | 0.27 | 0.01 | 95 | 1011.2 |
| 20260905072800 | 70 | 286 | 0.0 | 0.0 | 0.01 | 0.27 | 0.01 | 95 | 1011.2 |
| 20260905072305 | 70 | 286 | 0.0 | 0.0 | 0.01 | 0.27 | 0.01 | 95 | 1011.3 |
| 20260905071802 | 70 | 286 | 0.0 | 0.0 | 0.01 | 0.27 | 0.01 | 95 | 1011.3 |
| 20260905071301 | 70 | 286 | 0.0 | 0.0 | 0.01 | 0.27 | 0.01 | 95 | 1011.3 |
| 20260905070802 | 70 | 286 | 0.0 | 0.0 | 0.01 | 0.27 | 0.01 | 95 | 1011.4 |
| 20260905070300 | 70 | 286 | 0.0 | 0.0 | 0.01 | 0.27 | 0.01 | 95 | 1011.4 |
| 20260905065802 | 70 | 286 | 0.0 | 0.0 | 0.01 | 0.27 | 0.01 | 95 | 1011.4 |
| 20260905065301 | 70 | 286 | 0.0 | 0.0 | 0.01 | 0.27 | 0.01 | 95 | 1011.5 |
| 20260905064802 | 70 | 286 | 0.0 | 0.0 | 0.01 | 0.27 | 0.01 | 95 | 1011.5 |
| 20260905064257 | 70 | 286 | 0.0 | 0.0 | 0.00 | 0.26 | 0.01 | 95 | 1011.6 |
| 20260905063757 | 71 | 286 | 0.0 | 0.0 | 0.00 | 0.26 | 0.00 | 95 | 1011.8 |
| 20260905063258 | 71 | 286 | 0.0 | 0.0 | 0.00 | 0.26 | 0.00 | 95 | 1011.9 |
| 20260905062755 | 71 | 286 | 0.0 | 0.0 | 0.00 | 0.26 | 0.00 | 95 | 1012.0 |
| 20260905062253 | 71 | 286 | 0.0 | 1.0 | 0.00 | 0.26 | 0.00 | 95 | 1012.0 |
| 20260905061752 | 71 | 286 | 0.0 | 1.0 | 0.00 | 0.26 | 0.00 | 95 | 1012.2 |
| 20260905061250 | 71 | 9 | 0.0 | 0.0 | 0.00 | 0.26 | 0.00 | 95 | 1012.3 |
| 20260905060748 | 71 | 9 | 0.0 | 1.0 | 0.00 | 0.27 | 0.00 | 95 | 1012.3 |
| 20260905060247 | 71 | 9 | 0.0 | 1.0 | 0.00 | 0.27 | 0.00 | 95 | 1012.2 |
| 20260905055746 | 71 | 9 | 0.0 | 1.0 | 0.00 | 0.27 | 0.00 | 95 | 1012.3 |
| 20260905055247 | 71 | 9 | 0.0 | 1.0 | 0.00 | 0.27 | 0.00 | 95 | 1012.2 |
| 20260905054746 | 71 | 9 | 0.0 | 0.0 | 0.00 | 0.27 | 0.00 | 95 | 1012.3 |
| 20260905054245 | 71 | 9 | 0.0 | 0.0 | 0.00 | 0.27 | 0.00 | 95 | 1012.5 |
| 20260905053745 | 71 | 9 | 0.0 | 0.0 | 0.00 | 0.27 | 0.00 | 95 | 1012.5 |
| 20260905053507 | 71 | 9 | 0.0 | 0.0 | 0.00 | 0.27 | 0.00 | 95 | 1012.5 |
| 20260905052745 | 71 | 9 | 0.0 | 0.0 | 0.00 | 0.28 | 0.00 | 95 | 1012.5 |
| 20260905052239 | 71 | 9 | 0.0 | 1.0 | 0.00 | 0.29 | 0.00 | 95 | 1012.5 |
| 20260905051733 | 71 | 9 | 0.0 | 1.0 | 0.00 | 0.30 | 0.00 | 94 | 1012.5 |
| 20260905051227 | 71 | 9 | 0.0 | 1.0 | 0.00 | 0.30 | 0.00 | 94 | 1012.4 |
| 20260905050721 | 71 | 10 | 0.0 | 0.0 | 0.00 | 0.32 | 0.00 | 94 | 1012.6 |
| 20260905050215 | 71 | 10 | 0.0 | 0.0 | 0.00 | 0.34 | 0.00 | 94 | 1012.7 |
| 20260905045709 | 71 | 10 | 0.0 | 0.0 | 0.00 | 0.35 | 0.00 | 94 | 1012.7 |
| 20260905045203 | 71 | 10 | 0.0 | 0.0 | 0.00 | 0.37 | 0.00 | 94 | 1012.8 |
| 20260905044658 | 71 | 10 | 0.0 | 0.0 | 0.00 | 0.40 | 0.00 | 94 | 1012.8 |
| 20260905044150 | 71 | 10 | 0.0 | 1.0 | 0.00 | 0.43 | 0.00 | 94 | 1012.8 |
| 20260905043645 | 71 | 10 | 0.0 | 1.0 | 0.00 | 0.46 | 0.00 | 94 | 1013.0 |
| 20260905043402 | 71 | 10 | 0.0 | 1.0 | 0.00 | 0.50 | 0.00 | 94 | 1013.0 |
| 20260905042633 | 71 | 43 | 0.0 | 1.0 | 0.00 | 0.53 | 0.00 | 94 | 1012.9 |
| 20260905042127 | 71 | 5 | 0.0 | 2.0 | 0.00 | 0.56 | 0.00 | 94 | 1013.0 |
| 20260905041621 | 71 | 329 | 0.0 | 2.0 | 0.00 | 0.57 | 0.00 | 94 | 1013.1 |
| 20260905041116 | 72 | 196 | 0.0 | 1.0 | 0.00 | 0.57 | 0.00 | 94 | 1013.1 |
| 20260905040609 | 72 | 196 | 0.0 | 0.0 | 0.00 | 0.57 | 0.00 | 94 | 1013.1 |
| 20260905040329 | 72 | 196 | 0.0 | 0.0 | 0.00 | 0.57 | 0.00 | 94 | 1013.1 |
| 20260905035828 | 72 | 196 | 0.0 | 1.0 | 0.00 | 0.57 | 0.57 | 94 | 1013.2 |
| 20260905035058 | 72 | 196 | 0.0 | 1.0 | 0.00 | 0.57 | 0.57 | 94 | 1013.2 |
| 20260905034554 | 72 | 196 | 0.0 | 1.0 | 0.00 | 0.57 | 0.57 | 94 | 1013.2 |
| 20260905034316 | 72 | 196 | 0.0 | 1.0 | 0.00 | 0.57 | 0.57 | 94 | 1013.1 |
| 20260905033553 | 72 | 196 | 0.0 | 0.0 | 0.00 | 0.57 | 0.57 | 94 | 1013.2 |
| 20260905033049 | 72 | 196 | 0.0 | 0.0 | 0.00 | 0.57 | 0.57 | 94 | 1013.2 |
| 20260905032546 | 72 | 196 | 0.0 | 1.0 | 0.00 | 0.57 | 0.57 | 94 | 1013.1 |
| 20260905032045 | 72 | 196 | 0.0 | 1.0 | 0.00 | 0.57 | 0.57 | 94 | 1013.2 |
| 20260905031544 | 72 | 196 | 0.0 | 1.0 | 0.00 | 0.57 | 0.57 | 94 | 1013.2 |
| 20260905031310 | 72 | 196 | 0.0 | 1.0 | 0.00 | 0.57 | 0.57 | 94 | 1013.2 |
| 20260905030543 | 73 | 196 | 0.0 | 1.0 | 0.00 | 0.57 | 0.57 | 94 | 1013.4 |
| 20260905030044 | 73 | 148 | 0.0 | 0.0 | 0.00 | 0.57 | 0.57 | 94 | 1013.2 |
| 20260905025544 | 73 | 148 | 0.0 | 0.0 | 0.00 | 0.58 | 0.57 | 94 | 1013.0 |
| 20260905025041 | 73 | 148 | 0.0 | 1.0 | 0.00 | 0.61 | 0.57 | 94 | 1013.1 |
| 20260905024539 | 73 | 148 | 0.0 | 1.0 | 0.00 | 0.63 | 0.57 | 94 | 1013.4 |
| 20260905024259 | 73 | 148 | 0.0 | 1.0 | 0.00 | 0.63 | 0.57 | 94 | 1013.2 |
| 20260905023537 | 73 | 153 | 0.0 | 1.0 | 0.00 | 0.63 | 0.57 | 94 | 1013.4 |
| 20260905023034 | 73 | 153 | 0.0 | 1.0 | 0.00 | 0.63 | 0.57 | 94 | 1013.2 |
| 20260905022532 | 73 | 136 | 0.0 | 0.0 | 0.00 | 0.63 | 0.57 | 94 | 1013.1 |
| 20260905022306 | 73 | 136 | 0.0 | 1.0 | 0.00 | 0.63 | 0.57 | 94 | 1013.2 |
| 20260905021527 | 73 | 136 | 0.0 | 1.0 | 0.00 | 0.63 | 0.57 | 94 | 1013.1 |
| 20260905021027 | 73 | 106 | 0.0 | 1.0 | 0.00 | 0.63 | 0.57 | 94 | 1013.1 |
| 20260905020520 | 73 | 106 | 0.0 | 0.0 | 0.00 | 0.63 | 0.57 | 94 | 1013.1 |
| 20260905020015 | 73 | 106 | 0.0 | 0.0 | 0.00 | 0.63 | 0.57 | 94 | 1013.0 |
| 20260905015509 | 73 | 106 | 0.0 | 0.0 | 0.00 | 0.63 | 0.57 | 94 | 1013.0 |
| 20260905015235 | 73 | 106 | 0.0 | 0.0 | 0.00 | 0.63 | 0.57 | 94 | 1012.9 |
| 20260905014728 | 73 | 106 | 0.0 | 0.0 | 0.00 | 0.63 | 0.57 | 94 | 1012.9 |
| 20260905014213 | 73 | 106 | 0.0 | 0.0 | 0.00 | 0.63 | 0.57 | 94 | 1012.9 |
| 20260905013445 | 73 | 106 | 0.0 | 0.0 | 0.00 | 0.63 | 0.57 | 94 | 1012.8 |
| 20260905013203 | 73 | 106 | 0.0 | 0.0 | 0.00 | 0.63 | 0.57 | 93 | 1012.7 |
| 20260905012434 | 73 | 106 | 0.0 | 1.0 | 0.00 | 0.63 | 0.57 | 93 | 1012.5 |
| 20260905011927 | 74 | 106 | 0.0 | 1.0 | 0.00 | 0.63 | 0.57 | 93 | 1012.3 |
| 20260905011421 | 74 | 106 | 0.0 | 0.0 | 0.00 | 0.63 | 0.57 | 94 | 1012.4 |
| 20260905011407 | 74 | 106 | 0.0 | 0.0 | 0.00 | 0.63 | 0.57 | 94 | 1012.3 |
| 20260905010409 | 74 | 106 | 0.0 | 0.0 | 0.00 | 0.63 | 0.57 | 94 | 1012.2 |
| 20260905005904 | 74 | 106 | 0.0 | 1.0 | 0.00 | 0.63 | 0.57 | 93 | 1012.3 |
| 20260905005357 | 74 | 106 | 0.0 | 2.0 | 0.00 | 0.63 | 0.57 | 93 | 1012.1 |
| 20260905005117 | 74 | 106 | 0.0 | 2.0 | 0.00 | 0.63 | 0.57 | 93 | 1012.1 |
| 20260905004345 | 74 | 261 | 0.0 | 1.0 | 0.00 | 0.63 | 0.57 | 93 | 1012.0 |
| 20260905003839 | 74 | 261 | 0.0 | 1.0 | 0.00 | 0.63 | 0.57 | 93 | 1011.9 |
| 20260905003334 | 74 | 261 | 0.0 | 1.0 | 0.00 | 0.63 | 0.57 | 93 | 1012.1 |
| 20260905002827 | 74 | 261 | 0.0 | 1.0 | 0.00 | 0.63 | 0.57 | 93 | 1012.0 |
| 20260905002321 | 74 | 261 | 0.0 | 0.0 | 0.00 | 0.63 | 0.57 | 93 | 1012.0 |
| 20260905001815 | 74 | 261 | 0.0 | 0.0 | 0.00 | 0.63 | 0.57 | 93 | 1012.0 |
| 20260905001310 | 74 | 261 | 0.0 | 0.0 | 0.00 | 0.63 | 0.57 | 93 | 1012.0 |
| 20260905000802 | 74 | 261 | 0.0 | 0.0 | 0.00 | 0.63 | 0.57 | 93 | 1011.9 |
| 20260905000257 | 74 | 261 | 0.0 | 0.0 | 0.00 | 0.63 | 0.57 | 93 | 1012.1 |
| 20260904235750 | 74 | 261 | 0.0 | 1.0 | 0.00 | 0.63 | 0.57 | 93 | 1012.2 |
| 20260904235245 | 74 | 261 | 0.0 | 1.0 | 0.00 | 0.63 | 0.57 | 93 | 1012.4 |
| 20260904234739 | 74 | 261 | 0.0 | 1.0 | 0.00 | 0.63 | 0.57 | 93 | 1012.6 |
| 20260904234234 | 74 | 261 | 0.0 | 0.0 | 0.00 | 0.63 | 0.57 | 93 | 1012.5 |
| 20260904233727 | 75 | 261 | 0.0 | 0.0 | 0.00 | 0.63 | 0.57 | 93 | 1012.6 |
| 20260904233221 | 75 | 261 | 0.0 | 0.0 | 0.00 | 0.63 | 0.57 | 93 | 1012.6 |
| 20260904232716 | 75 | 261 | 0.0 | 0.0 | 0.00 | 0.63 | 0.57 | 93 | 1012.6 |
| 20260904232209 | 75 | 261 | 0.0 | 0.0 | 0.00 | 0.63 | 0.57 | 93 | 1012.3 |
| 20260904231703 | 75 | 261 | 0.0 | 0.0 | 0.00 | 0.63 | 0.57 | 93 | 1012.2 |
| 20260904231157 | 75 | 261 | 0.0 | 0.0 | 0.00 | 0.63 | 0.57 | 93 | 1012.2 |
| 20260904230651 | 75 | 261 | 0.0 | 1.0 | 0.00 | 0.63 | 0.57 | 92 | 1012.2 |
| 20260904230144 | 75 | 261 | 0.0 | 1.0 | 0.00 | 0.63 | 0.57 | 92 | 1012.3 |
| 20260904225639 | 75 | 261 | 0.0 | 1.0 | 0.00 | 0.63 | 0.57 | 92 | 1012.2 |
| 20260904225133 | 75 | 261 | 0.0 | 1.0 | 0.00 | 0.63 | 0.57 | 92 | 1012.2 |
| 20260904224628 | 75 | 261 | 0.0 | 0.0 | 0.00 | 0.63 | 0.57 | 92 | 1012.4 |
| 20260904224122 | 75 | 261 | 0.0 | 1.0 | 0.00 | 0.63 | 0.57 | 92 | 1012.2 |
| 20260904224059 | 75 | 261 | 0.0 | 0.0 | 0.00 | 0.63 | 0.57 | 92 | 1012.3 |
| 20260904223109 | 75 | 261 | 0.0 | 0.0 | 0.00 | 0.63 | 0.57 | 91 | 1012.1 |
| 20260904222604 | 75 | 261 | 0.0 | 0.0 | 0.00 | 0.63 | 0.57 | 91 | 1012.2 |
| 20260904222057 | 75 | 261 | 0.0 | 0.0 | 0.00 | 0.63 | 0.57 | 91 | 1012.2 |
| 20260904221550 | 75 | 261 | 0.0 | 1.0 | 0.00 | 0.63 | 0.57 | 91 | 1012.1 |
| 20260904221309 | 75 | 261 | 0.0 | 1.0 | 0.00 | 0.63 | 0.57 | 91 | 1012.3 |
| 20260904220539 | 75 | 261 | 0.0 | 1.0 | 0.00 | 0.63 | 0.57 | 91 | 1012.6 |
| 20260904220036 | 75 | 261 | 0.0 | 0.0 | 0.00 | 0.63 | 0.57 | 90 | 1012.6 |
| 20260904220014 | 75 | 261 | 0.0 | 0.0 | 0.00 | 0.63 | 0.57 | 90 | 1013.0 |
| 20260904215021 | 75 | 261 | 0.0 | 0.0 | 0.01 | 0.63 | 0.57 | 90 | 1013.2 |
| 20260904214515 | 75 | 261 | 0.0 | 1.0 | 0.03 | 0.63 | 0.57 | 89 | 1013.2 |
| 20260904214228 | 75 | 261 | 0.0 | 1.0 | 0.06 | 0.63 | 0.57 | 89 | 1013.7 |
| 20260904213503 | 76 | 261 | 0.0 | 1.0 | 0.09 | 0.63 | 0.57 | 88 | 1013.7 |
| 20260904212957 | 76 | 261 | 0.0 | 1.0 | 0.13 | 0.63 | 0.57 | 88 | 1013.8 |
| 20260904212451 | 76 | 261 | 0.0 | 1.0 | 0.19 | 0.63 | 0.57 | 88 | 1013.8 |
| 20260904211945 | 76 | 313 | 0.0 | 1.0 | 0.25 | 0.63 | 0.57 | 87 | 1013.8 |
| 20260904211439 | 77 | 331 | 0.0 | 1.0 | 0.26 | 0.63 | 0.57 | 87 | 1013.4 |
| 20260904210934 | 77 | 66 | 0.0 | 1.0 | 0.26 | 0.63 | 0.57 | 86 | 1013.0 |
| 20260904210427 | 77 | 66 | 0.0 | 1.0 | 0.26 | 0.63 | 0.57 | 85 | 1013.0 |
| 20260904205921 | 78 | 66 | 0.0 | 1.0 | 0.26 | 0.63 | 0.57 | 85 | 1012.6 |
| 20260904205639 | 78 | 66 | 0.0 | 1.0 | 0.26 | 0.63 | 0.57 | 84 | 1012.8 |
| 20260904205146 | 79 | 63 | 0.0 | 2.0 | 0.25 | 0.62 | 0.56 | 82 | 1012.8 |
| 20260904204642 | 79 | 99 | 1.0 | 7.0 | 0.23 | 0.60 | 0.54 | 80 | 1012.6 |
| 20260904203919 | 80 | 44 | 2.0 | 10.0 | 0.20 | 0.57 | 0.51 | 79 | 1013.1 |
| 20260904203913 | 82 | 115 | 3.0 | 10.0 | 0.16 | 0.53 | 0.48 | 78 | 1013.8 |
| 20260904202919 | 83 | 345 | 3.0 | 12.0 | 0.12 | 0.49 | 0.43 | 79 | 1013.6 |
| 20260904202642 | 85 | 108 | 4.0 | 12.0 | 0.05 | 0.42 | 0.37 | 78 | 1013.5 |
| 20260904201918 | 86 | 46 | 2.0 | 11.0 | 0.00 | 0.37 | 0.31 | 78 | 1013.7 |
| 20260904201418 | 87 | 10 | 0.0 | 2.0 | 0.00 | 0.37 | 0.31 | 77 | 1013.5 |
| 20260904200920 | 87 | 254 | 0.0 | 0.0 | 0.00 | 0.37 | 0.31 | 76 | 1013.1 |
| 20260904200416 | 87 | 254 | 0.0 | 1.0 | 0.00 | 0.37 | 0.31 | 76 | 1013.1 |
| 20260904195916 | 87 | 254 | 0.0 | 1.0 | 0.00 | 0.37 | 0.31 | 76 | 1012.8 |
| 20260904195907 | 88 | 254 | 0.0 | 0.0 | 0.00 | 0.37 | 0.31 | 76 | 1012.4 |
| 20260904194913 | 88 | 254 | 0.0 | 0.0 | 0.00 | 0.37 | 0.31 | 75 | 1012.2 |
| 20260904194902 | 88 | 254 | 0.0 | 1.0 | 0.00 | 0.37 | 0.31 | 73 | 1012.3 |
| 20260904193912 | 88 | 254 | 0.0 | 1.0 | 0.00 | 0.37 | 0.31 | 73 | 1012.6 |